Torna al catalogo

STARLINK-4097

AttivoComunicazioniVLEO
NORAD 53265·PAYLOAD·🇺🇸 United States

Lanciato Jul 24, 2022 da Cape Canaveral Space Force Station

Loading…

Prossimi Passaggi (prossime 24 ore)

TLE

AggiornatoSource: CelesTrak SupGP

Epoca: Sep 15, 2026, 01:30 UTC

1 53265C 22086Z   26258.06298611 -.00053780  00000+0 -15388-2 0  2584
2 53265  53.1584  51.8022 0001212  81.3013 228.7034 15.35423723    11

Traccia STARLINK-4097 in tempo reale con AllMySat

Download on the App Store